Hatteras, NC

1:28 AM EDT on June 26, 2017 (GMT -0400)
Mitchell

Weather History for KHSE - August, 2013

Change the Weather History Date:

Sunday, August 18, 2013

  Actual Average Record
Temperature  
Mean Temperature 81 °F 78 °F  
Max Temperature 85 °F 84 °F 93 °F (1988)
Min Temperature 76 °F 73 °F 56 °F (1979)
Degree Days  
Heating Degree Days 0 0  
Month to date heating degree days 0 0  
Since 1 June heating degree days 0 3  
Since 1 July heating degree days 0 0  
Cooling Degree Days 16 13  
Month to date cooling degree days 279 251  
Year to date cooling degree days 1350 1139  
Since 1 June cooling degree days 1188 996  
Growing Degree Days 30 (Base 50)    
Moisture  
Dew Point 74 °F    
Average Humidity 80    
Maximum Humidity 94    
Minimum Humidity 65    
Precipitation  
Precipitation 0.00 in 0.22 in 5.30 in (1991)
Month to date precipitation 2.99 3.79  
Year to date precipitation 30.42 34.05  
Snow  
Snow 0.00 in - - ()
Month to date snowfall 0.0  
Since 1 July snowfall 0.0  
Snow Depth 0.00 in    
Sea Level Pressure  
Sea Level Pressure 30.14 in    
Wind  
Wind Speed 8 mph (WSW)    
Max Wind Speed 20 mph    
Max Gust Speed 28 mph    
Visibility 9 miles    
Events      
T = Trace of Precipitation, MM = Missing Value Source: NWS Daily Summary

Daily Weather History Graph

Daily Weather History Graph

Search for Another Location

Airport or City:

Trip Planner

Search our weather history database for the weather conditions in past years. The results will help you decide how hot, cold, wet, or windy it might be!

Date:

Astronomy

Aug. 18, 2013 Rise Set
Actual Time 6:24 AM EDT 7:47 PM EDT
Civil Twilight 5:57 AM EDT 8:13 PM EDT
Nautical Twilight 5:25 AM EDT 8:45 PM EDT
Astronomical Twilight 4:52 AM EDT 9:19 PM EDT
Moon 5:49 PM EDT (8/18) 3:34 AM EDT (8/18)
Length of Visible Light 14h 16m
Length of Day
13h 22m
Waxing Gibbous, 92% of the Moon is Illuminated
Aug 18
Waxing Gibbous
Aug 20
Full
Aug 28
Last Quarter
Sep 5
New
Sep 12
First Quarter

Hourly Weather History & Observations

Time (EDT) Temp. Heat Index Dew Point Humidity Pressure Visibility Wind Dir Wind Speed Gust Speed Precip Events Conditions
12:51 AM 80.1 °F 84.5 °F 73.9 °F 81% 30.09 in 10.0 mi SSW 13.8 mph 23.0 mph N/A   Partly Cloudy
1:51 AM 78.1 °F - 73.0 °F 84% 30.10 in 10.0 mi WSW 16.1 mph 25.3 mph N/A   Mostly Cloudy
2:12 AM 78.8 °F - 73.4 °F 83% 30.10 in 9.0 mi WSW 17.3 mph 25.3 mph N/A   Overcast
2:51 AM 77.0 °F - 73.0 °F 88% 30.10 in 9.0 mi WSW 12.7 mph 18.4 mph N/A   Mostly Cloudy
3:03 AM 77.0 °F - 73.4 °F 89% 30.10 in 9.0 mi WSW 11.5 mph 18.4 mph N/A   Scattered Clouds
3:51 AM 75.9 °F - 73.0 °F 91% 30.10 in 9.0 mi WSW 9.2 mph - N/A   Clear
4:51 AM 75.9 °F - 73.0 °F 91% 30.12 in 10.0 mi WSW 9.2 mph - N/A   Clear
5:30 AM 75.2 °F - 73.4 °F 94% 30.12 in 9.0 mi WSW 9.2 mph - N/A   Partly Cloudy
5:51 AM 75.9 °F - 73.0 °F 91% 30.12 in 7.0 mi WSW 6.9 mph - N/A   Clear
6:51 AM 75.9 °F - 73.0 °F 91% 30.14 in 10.0 mi WSW 6.9 mph - N/A   Clear
7:10 AM 75.2 °F - 73.4 °F 94% 30.15 in 5.0 mi West 5.8 mph - N/A   Scattered Clouds
7:21 AM 77.0 °F - 73.4 °F 89% 30.15 in 6.0 mi West 5.8 mph - N/A   Mostly Cloudy
7:51 AM 77.0 °F - 73.9 °F 90% 30.16 in 10.0 mi West 8.1 mph - N/A   Mostly Cloudy
8:06 AM 78.8 °F - 73.4 °F 83% 30.16 in 10.0 mi West 9.2 mph 16.1 mph N/A   Mostly Cloudy
8:51 AM 80.1 °F 84.5 °F 73.9 °F 81% 30.17 in 10.0 mi West 6.9 mph - N/A   Overcast
9:30 AM 80.6 °F 85.4 °F 73.4 °F 79% 30.18 in 10.0 mi West 6.9 mph - N/A   Overcast
9:51 AM 82.0 °F 87.4 °F 73.0 °F 74% 30.18 in 10.0 mi West 10.4 mph 18.4 mph N/A   Scattered Clouds
10:51 AM 81.0 °F 85.8 °F 73.0 °F 77% 30.19 in 10.0 mi West 6.9 mph - N/A   Partly Cloudy
11:51 AM 82.0 °F 87.9 °F 73.9 °F 76% 30.19 in 10.0 mi West 8.1 mph - N/A   Partly Cloudy
12:51 PM 82.0 °F 87.4 °F 73.0 °F 74% 30.18 in 10.0 mi West 8.1 mph - N/A   Clear
1:51 PM 84.0 °F 89.6 °F 72.0 °F 67% 30.17 in 10.0 mi West 10.4 mph 16.1 mph N/A   Clear
2:51 PM 82.0 °F 87.9 °F 73.9 °F 76% 30.16 in 10.0 mi SW 6.9 mph - N/A   Clear
3:51 PM 82.9 °F 90.2 °F 75.0 °F 77% 30.15 in 10.0 mi SW 9.2 mph - N/A   Clear
4:51 PM 84.0 °F 91.9 °F 75.0 °F 74% 30.14 in 10.0 mi SSW 8.1 mph - N/A   Clear
5:51 PM 82.9 °F 90.8 °F 75.9 °F 79% 30.14 in 10.0 mi SSW 6.9 mph - N/A   Clear
6:51 PM 82.0 °F 87.9 °F 73.9 °F 76% 30.13 in 10.0 mi SW 4.6 mph - N/A   Clear
7:51 PM 81.0 °F 86.2 °F 73.9 °F 79% 30.14 in 10.0 mi SW 4.6 mph - N/A   Clear
8:51 PM 81.0 °F 86.7 °F 75.0 °F 82% 30.14 in 10.0 mi SW 3.5 mph - N/A   Clear
9:51 PM 81.0 °F 86.2 °F 73.9 °F 79% 30.17 in 10.0 mi WSW 4.6 mph - N/A   Clear
10:51 PM 80.1 °F 84.5 °F 73.9 °F 81% 30.17 in 10.0 mi West 4.6 mph - N/A   Clear
11:51 PM 80.1 °F 85.1 °F 75.0 °F 85% 30.17 in 9.0 mi West 5.8 mph - N/A   Scattered Clouds